Location: Akkuyu
(36.8800°N, 30.6418°E)
Time: 07:22:20
(UTC+00:00)

Daily predictions for brighter satellites

Satellite Brightness Start Highest point End
(mag) Time Altitude Azimuth Time Altitude Azimuth Time Altitude Azimuth
Cosmos 2228 3.1 15:30:22 10° N 15:34:33 52° E 15:38:44 10° SSE
Abrixas rocket 2.6 15:33:14 10° WNW 15:35:49 50° SW 15:38:23 10° SE
CORIOLIS 4.2 15:30:29 10° SSE 15:35:53 81° ENE 15:41:17 10° N
Cosmos 1777 Rocket 4.0 15:31:25 10° S 15:36:37 67° ESE 15:41:52 10° NNE
SJ 16-02 2.6 15:33:24 10° SSE 15:36:50 23° E 15:40:16 10° NE
Cosmos 2263 Rocket 3.3 15:31:41 10° SW 15:37:08 46° WNW 15:42:35 10° N
SKYMED 2 4.0 15:35:13 10° NNE 15:39:20 42° E 15:43:27 10° S
NOAA 11 4.2 15:35:34 10° SSE 15:41:04 82° ENE 15:46:35 10° N
Cosmos 783 Rocket 4.5 15:38:53 10° NNW 15:44:08 76° ENE 15:49:23 10° SSE
Cosmos 2058 Rocket 3.7 15:49:24 10° N 15:53:34 36° ENE 15:57:43 10° SE
ARGOS 4.5 15:50:27 10° ESE 15:53:47 17° ENE 15:57:07 10° NNE
Cosmos 1455 3.6 15:51:14 10° NNE 15:53:51 17° ENE 15:56:27 10° ESE
Cosmos 1300 3.2 15:54:20 10° NNW 15:58:07 65° W 16:01:52 10° S
X-37B 0.6 15:55:16 10° WSW 15:58:27 77° NNW 16:00:57 15° ENE
Okean 1-7 Rocket 3.8 15:56:12 10° S 16:00:35 53° E 16:05:02 10° NNE
Meteor 1-24 Rocket 4.4 15:57:27 10° SSW 16:02:43 55° W 16:07:56 10° N
COSMOS 2455 3.0 15:56:58 10° SSW 16:02:58 78° WNW 16:09:02 10° NNE
Lacrosse 5 3.3 15:59:44 10° NNW 16:03:26 20° NNE 16:05:44 15° ENE
Cosmos 1943 3.6 15:58:19 10° NNW 16:03:57 69° WSW 16:09:32 10° S
Cosmos 1939 Rocket 2.9 16:02:04 10° SSE 16:06:12 90° W 16:10:19 10° NNW
CZ-2C R/B 4.0 16:04:20 12° NE 16:07:36 20° E 16:11:33 10° SE
Cosmos 1844 3.9 16:03:49 10° S 16:09:13 51° ESE 16:14:44 10° NNE
Cosmos 1726 Rocket 3.6 16:04:55 10° N 16:09:18 87° W 16:13:41 10° S
ISS -3.3 16:06:15 10° WSW 16:09:33 56° NW 16:12:02 16° NE
IRS-1C Rocket 4.1 16:06:47 10° SSE 16:11:54 56° ENE 16:17:03 10° N
Cosmos 1626 Rocket 4.1 16:08:17 10° SSE 16:12:13 34° E 16:16:12 10° NNE
NOSS 2-1 (C) 4.2 16:09:26 10° S 16:12:17 22° ESE 16:13:07 20° E
ERS-2 2.0 16:08:56 10° NNE 16:12:32 63° ESE 16:16:08 10° S
Feng Yun 1-1 Rocket 4.1 16:07:33 10° SSE 16:12:56 79° ENE 16:18:26 10° N
PSLV R/B 4.1 16:09:04 10° NNE 16:13:11 51° E 16:17:16 10° S
NOSS 2-1 (D) 4.0 16:15:07 10° S 16:18:08 26° ESE 16:18:52 24° E
CZ-4 R/B 1.7 16:14:28 10° SE 16:18:25 44° ENE 16:22:16 10° N
USA 267 3.8 16:16:51 17° ENE 16:21:28 41° SE 16:27:33 10° SSW
Cosmos 2279 Rocket 4.4 16:15:35 10° NNW 16:21:47 66° W 16:27:56 10° S
COSMO-SKYMED 1 3.4 16:23:13 10° N 16:27:26 51° WNW 16:31:38 10° SSW
CZ-2C R/B 3.1 16:25:42 10° SSE 16:30:53 89° WSW 16:36:24 10° NNW
Hubble Space Telescope 2.5 16:28:06 10° SW 16:31:24 23° S 16:33:26 16° SE
CZ-4 R/B 4.5 16:27:18 10° S 16:31:25 82° WSW 16:35:35 10° NNW
Cosmos 1844 Rocket 2.8 16:25:47 10° SSW 16:31:26 81° WNW 16:37:07 10° NNE
Okean-O 2.6 16:28:37 10° SSE 16:32:57 59° ENE 16:37:19 10° N
Meteor 1-21 Rocket 4.1 16:27:46 10° S 16:33:15 72° E 16:38:46 10° NNE
H-2A R/B 2.0 16:29:04 10° SSE 16:33:52 54° ENE 16:38:47 10° N
Okean O Rocket 4.2 16:32:36 10° SSW 16:36:08 23° W 16:39:40 10° NW
Cosmos 923 Rocket 4.4 16:34:05 10° N 16:39:06 40° ENE 16:42:34 18° SE
Cosmos 2278 Rocket 3.8 16:36:34 10° SE 16:38:31 16° SE 16:38:31 16° SE
Cosmos 1898 Rocket 3.7 16:36:10 10° S 16:41:11 46° ESE 16:43:20 30° NE
CZ-4B R/B 4.0 16:38:53 10° NNW 16:41:26 20° WNW 16:43:56 10° WSW
Cosmos 158 Rocket 4.1 16:39:53 10° N 16:45:06 51° ENE 16:50:20 10° SE
Aureole 2 Rocket 4.3 16:43:04 10° WSW 16:45:33 24° WNW 16:48:02 10° N
Cosmos 1680 Rocket 4.1 16:41:42 10° N 16:46:09 34° ENE 16:46:09 34° ENE
Cosmos 2098 Rocket 4.5 16:41:53 10° SSE 16:48:19 47° E 16:55:20 10° NNE
Cosmos 1689 Rocket 3.2 16:48:09 23° NNW 16:49:32 41° WNW 16:52:13 10° SSW
Cosmos 1818 4.4 16:44:29 10° SW 16:49:43 50° NW 16:54:12 14° NNE
Cosmos 1602 Rocket 3.3 16:47:53 10° S 16:52:11 74° E 16:54:20 29° NNE
Cosmos 489 Rocket 4.4 16:47:46 10° NNW 16:54:10 75° ENE 17:00:27 10° SSE
CSL-04 Rocket 3.6 16:49:25 10° SSE 16:54:40 57° ENE 17:00:00 10° N
Meteor 2-10 Rocket 4.5 16:49:51 10° NNW 16:55:07 50° W 17:00:08 10° SSW
YAOGAN 1 2.6 16:51:00 10° S 16:55:19 79° WSW 16:59:40 10° NNW
Cosmos 1092 Rocket 3.9 16:51:45 10° S 16:57:58 87° E 17:04:10 10° N
Helios 1A Rocket 2.9 16:57:03 10° SSE 17:01:10 85° WSW 17:05:20 10° NNW
Iridium 4 Rocket 3.4 17:04:08 10° N 17:09:46 79° E 17:14:54 10° S
NOSS 2-1 (E) 4.0 17:09:41 10° SW 17:12:11 43° SW 17:12:11 43° SW
SJ 16-02 3.3 17:11:29 10° SW 17:15:14 27° WNW 17:18:57 10° N
Cosmos 1937 Rocket 3.4 17:11:14 10° S 17:16:29 73° ESE 17:16:30 73° ESE
CZ-3B R/B 3.4 17:17:51 10° NNW 17:43:07 - SE 17:20:09 37° N
Cosmos 1455 4.5 17:26:16 10° NW 17:29:24 24° W 17:32:32 10° SW
Cosmos 1340 4.4 17:28:31 10° SSW 17:31:00 31° WSW 17:31:00 31° WSW
ARGOS 3.6 17:28:17 10° S 17:33:31 58° W 17:38:49 10° NNW
X-37B 3.8 17:32:50 10° WNW 17:33:14 12° WNW 17:33:14 12° WNW
Cosmos 44 4.4 17:35:35 10° WSW 17:40:00 39° NW 17:40:18 39° NW
Lacrosse 5 3.0 17:41:53 10° NW 17:45:00 38° NW 17:45:00 38° NW
NOSS 3-1 (C) 4.1 17:40:13 10° NNW 17:47:11 60° NNE 17:47:11 60° NNE
CZ-2C R/B 3.5 17:45:49 32° NNW 17:48:06 50° WNW 17:53:29 10° SW
USA 267 3.7 18:04:12 52° NNW 18:04:30 53° NW 18:10:48 10° WSW
Hubble Space Telescope 4.0 18:08:44 10° WSW 18:08:45 10° WSW 18:08:45 10° WSW
Cosmos 2278 Rocket 4.2 18:18:31 10° SW 18:20:26 21° SW 18:20:26 21° SW
